This is the latest recevied weather packets stored in our database for station/object OM6ABF-12. If no packets are shown the sender has not sent any weather packets the latest 10 day(s).
| Time | Temp. | Humidity | Pressure | Rain* | Wind** | Luminosity | Snow |
|---|---|---|---|---|---|---|---|
| 1777483680 | -0.56° C | 36% | 1030 hPa | - | - | - | - |
| 1777482724 | 0° C | 36% | 1030 hPa | - | - | - | - |
| 1777481767 | 0° C | 35% | 1029.7 hPa | - | - | - | - |
| 1777480809 | 0.56° C | 34% | 1029.7 hPa | - | - | - | - |
| 1777479852 | 1.11° C | 35% | 1029.9 hPa | - | - | - | - |
| 1777478893 | 1.67° C | 35% | 1029.9 hPa | - | - | - | - |
| 1777477935 | 2.22° C | 34% | 1029.7 hPa | - | - | - | - |
| 1777476976 | 3.33° C | 33% | 1029.7 hPa | - | - | - | - |
| 1777476018 | 3.33° C | 34% | 1029.7 hPa | - | - | - | - |
| 1777475060 | 3.89° C | 35% | 1029.7 hPa | - | - | - | - |
| 1777474103 | 3.89° C | 35% | 1029.5 hPa | - | - | - | - |
| 1777473147 | 3.89° C | 36% | 1029.5 hPa | - | - | - | - |
| 1777472188 | 4.44° C | 37% | 1029.6 hPa | - | - | - | - |
| 1777471230 | 4.44° C | 36% | 1029.6 hPa | - | - | - | - |
| 1777470273 | 4.44° C | 36% | 1029.5 hPa | - | - | - | - |
| 1777469316 | 5° C | 35% | 1029.5 hPa | - | - | - | - |
| 1777468351 | 5° C | 35% | 1029.5 hPa | - | - | - | - |
| 1777467393 | 5° C | 34% | 1029.5 hPa | - | - | - | - |
| 1777466436 | 6.67° C | 31% | 1029.4 hPa | - | - | - | - |
| 1777465477 | 7.22° C | 29% | 1029.4 hPa | - | - | - | - |
| 1777464520 | 7.78° C | 28% | 1029.4 hPa | - | - | - | - |
| 1777463556 | 7.78° C | 29% | 1029.4 hPa | - | - | - | - |
| 1777462600 | 7.78° C | 28% | 1029.5 hPa | - | - | - | - |
| 1777461644 | 7.78° C | 27% | 1029.4 hPa | - | - | - | - |
| 1777460687 | 8.33° C | 27% | 1029.4 hPa | - | - | - | - |
* Rain since midnight (hover to see other rain measurements)
** Current wind speed in m/s (hover to see current wind gust speed)